Content
SEND FEEDBACK

Daily
Averages
Monthly
Summary
United States of America

RAPID CITY, SOUTH DAKOTA


Home > North America > United States > South Dakota
Elevation: 3162 feet     Latitude: 44 03N     Longitude: 103 04W

WEATHER
 
SELECT A DAY
Number of Records: 200,194;   Date Range: 1/1/95 - 7/20/14
 
SHARE

PRINT THIS DATA

[ ← Previous Day ]
WEATHER ALMANAC - DECEMBER 17, 2013
[ Next Day → ]
[ °C ]   °F
Weather ElementAverageHighLow
Temperature33.8 °F44.1 °F (2:52 pm)23 °F (7:52 am)
Dewpoint22.7 °F27 °F (12:52 pm)18 °F (6:52 am)
Humidity65.2 %85 % (2:52 am)47 % (11:52 pm)
Barometer30.13 in30.38 in (6:52 am)29.83 in (11:52 pm)
Wind Speed8.8 mph19.6 mph (1:52 am)
Wind Gust25.3 mph (1:52 am)
Weather ElementAverage
Visibility10 mi
Wind DirectionS (184.3 °)

Weather ElementTotal
Precipitation---
Heating Degree Days31.5 (Base 65)
Averaged from 23 records on December 17, 2013
WEATHER CONDITIONS BREAKOUT
WIND DIRECTION BREAKOUT
WEATHER BY HOUR - DECEMBER 17, 2013
[ °C ]   °F
Local TimeTemperatureDewpointHumidityBarometerVisibilityWind DirectionWind SpeedGust SpeedPrecipitationEventsConditions
1:52 AM30.0 °F25.0 °F82 %30.29 in10.0 miNorth (350°)19.6 mph25.3 mphClear
2:52 AM28.0 °F24.1 °F85 %30.31 in10.0 miNorth (350°)15.0 mphClear
3:52 AM28.0 °F21.9 °F78 %30.33 in10.0 miNNW (340°)15.0 mphClear
4:52 AM27.0 °F19.9 °F75 %30.35 in10.0 miNorth (350°)12.7 mphClear
5:52 AM27.0 °F19.0 °F72 %30.37 in10.0 miNorth (350°)12.7 mphClear
6:52 AM24.1 °F18.0 °F77 %30.38 in10.0 miWest (260°)6.9 mphClear
7:52 AM23.0 °F18.0 °F81 %30.37 in10.0 miCalmClear
8:52 AM28.0 °F21.9 °F78 %30.34 in10.0 miWSW (240°)5.8 mphClear
9:52 AM32.0 °F26.1 °F79 %30.32 in10.0 miSouth (190°)15.0 mphClear
10:52 AM35.1 °F24.1 °F64 %30.27 in10.0 miSouth (180°)15.0 mphClear
11:52 AM37.9 °F26.1 °F62 %30.18 in10.0 miSSE (160°)15.0 mphClear
12:52 PM41.0 °F27.0 °F57 %30.10 in10.0 miSSE (160°)15.0 mphClear
1:52 PM43.0 °F27.0 °F53 %30.04 in10.0 miSSE (160°)15.0 mphClear
2:52 PM44.1 °F27.0 °F51 %30.02 in10.0 miSE (140°)10.4 mphClear
3:52 PM39.9 °F26.1 °F58 %30.00 in10.0 miSE (130°)4.6 mphClear
4:52 PM37.0 °F24.1 °F59 %29.98 in10.0 miSE (130°)3.5 mphClear
5:52 PM39.9 °F23.0 °F51 %29.96 in10.0 miSW (220°)9.2 mphClear
6:52 PM37.9 °F21.9 °F53 %29.95 in10.0 miSouth (180°)4.6 mphClear
7:52 PM36.0 °F21.0 °F55 %29.94 in10.0 miSouth (170°)3.5 mphClear
8:52 PM35.1 °F21.0 °F57 %29.91 in10.0 miCalmClear
9:52 PM33.1 °F21.0 °F61 %29.89 in10.0 miSouth (180°)4.6 mphClear
10:52 PM32.0 °F21.0 °F64 %29.88 in10.0 miCalmClear
11:52 PM37.9 °F19.0 °F47 %29.83 in10.0 miCalmClear
Hourly data recorded from KRAP, located miles away from Rapid City, South Dakota







STORIES FROM OUR PARTNERS